Wind_Speed
25 27 27 29 30 28 28 26 26 26 28 27 26 26 27 28 27 29 29 30 23 16 14 14 17 19 19 17 17 18 18 20 23 24 23 20 23 28 28 31 33 33 33 37 41 47 51
14 19 20 22 24 25 27 27 25 27 26 27 29 27 29 26 29 28 23 14 11 16 16 17 18 16 16 16 20 19 21 23 27 29 30 31 31 30 28 27 29 33 39 41 42 44 44
16 12 17 17 16 17 21 23 24 25 26 28 27 27 28 29 28 13 9 12 15 15 15 16 18 18 19 19 21 24 27 29 34 34 38 38 40 36 36 38 38 41 42 42 44 46 48
21 22 22 13 14 17 18 18 20 21 21 23 25 27 26 21 9 11 12 12 14 13 15 17 19 21 23 25 27 28 32 34 34 35 40 42 39 37 39 39 42 46 47 48 46 46 48
18 19 24 23 20 15 11 12 13 14 15 16 16 16 9 4 9 9 10 11 15 17 19 22 24 27 28 29 30 32 36 38 38 39 40 39 40 40 41 42 45 48 48 50 49 49 50
29 19 25 25 26 23 15 16 12 18 16 14 8 2 5 9 9 10 12 16 21 21 22 25 28 30 31 31 34 38 40 42 41 43 43 42 43 44 45 48 46 46 45 48 50 51 53
31 32 30 28 24 26 21 18 14 17 18 15 17 8 7 9 15 17 18 22 23 25 27 30 33 35 37 35 37 41 45 45 43 42 42 42 46 47 48 49 54 54 49 48 53 55 54
22 23 30 25 25 30 26 25 18 22 21 13 15 13 14 17 20 24 26 28 31 34 35 38 39 43 44 41 41 47 51 50 47 45 47 50 52 49 47 52 53 50 48 52 54 58 58
20 13 22 20 25 25 24 21 24 22 27 22 18 17 19 24 28 31 31 33 36 37 39 41 42 47 47 42 47 54 57 55 51 49 52 56 54 51 52 54 52 52 54 55 56 59 60
19 18 14 18 28 21 19 20 20 20 28 29 28 27 30 31 33 38 38 39 40 42 41 42 46 50 48 48 54 58 60 55 54 51 59 60 62 61 57 60 55 54 60 63 64 65 64
23 26 22 21 18 21 24 24 25 26 29 30 34 35 39 41 43 44 46 44 45 47 47 48 50 48 51 56 60 63 61 64 58 63 65 66 67 64 68 69 68 65 67 69 71 73 69
32 31 29 30 26 27 27 30 30 28 34 37 41 40 46 44 45 50 47 45 48 50 48 51 48 51 56 59 63 65 62 64 65 70 69 72 73 72 75 78 75 73 76 79 79 82 76
30 35 35 39 32 32 29 31 34 40 41 40 46 46 50 50 54 52 49 50 50 51 51 51 56 59 63 67 69 66 69 69 69 76 77 75 80 80 83 85 81 82 87 91 91 90 84
42 36 36 38 34 32 38 34 32 40 43 43 47 52 52 51 51 51 50 51 50 50 54 58 62 64 70 71 71 68 74 73 75 83 83 82 80 81 86 86 87 91 95 97 104 98 94
46 45 40 43 40 46 40 39 38 45 43 48 53 54 52 54 50 50 50 47 53 57 62 64 66 68 71 71 70 73 78 74 84 86 95 92 84 87 93 93 97 99 102 103 108 101 97
51 52 50 49 49 48 42 42 44 49 46 51 56 54 55 58 58 50 50 55 58 64 64 64 66 72 72 73 75 81 82 84 93 92 97 98 94 94 97 104 105 108 109 110 107 106 100
56 55 54 54 53 52 43 44 50 54 51 54 54 57 60 61 58 51 55 59 63 64 67 68 75 76 79 79 83 85 87 93 100 102 104 102 102 103 108 115 115 111 115 113 113 104 108
65 62 65 64 57 55 58 57 60 52 52 52 59 60 60 60 55 57 62 64 67 69 71 74 77 81 85 84 88 89 94 101 106 109 105 107 113 119 110 114 116 114 114 110 106 101 96
66 68 66 60 61 63 61 63 56 54 62 60 58 60 62 61 61 64 68 70 74 77 77 80 83 85 86 89 94 94 103 107 112 112 111 111 130 127 117 118 117 109 106 102 97 91 77
66 66 66 69 68 68 63 57 56 56 56 58 60 61 60 63 65 65 68 76 79 79 81 87 90 86 88 98 100 108 107 114 114 116 115 134 131 132 129 122 110 98 94 90 90 91 82
63 64 67 66 61 60 59 57 56 50 54 64 61 62 63 65 65 69 74 78 81 81 87 92 91 88 97 102 108 109 113 118 119 120 134 134 134 133 133 123 109 94 84 81 82 85 83
67 64 61 54 61 58 58 55 56 60 63 68 65 63 66 66 70 75 81 83 84 87 90 94 92 96 103 111 110 113 120 120 119 135 138 136 136 130 126 114 102 93 88 81 72 72 79
75 67 67 68 60 59 60 67 59 64 64 66 65 67 68 73 78 82 84 84 88 92 94 94 99 105 109 112 112 119 123 121 135 138 138 137 132 124 111 101 100 92 87 79 72 68 68
76 73 69 68 65 62 61 64 66 73 64 62 70 76 73 79 82 82 87 88 91 97 97 99 104 108 110 113 119 121 124 136 145 142 138 132 126 111 102 95 90 87 79 72 67 65 60
77 73 71 70 69 61 62 68 70 69 65 70 73 73 77 80 81 88 90 91 98 103 102 103 109 105 114 116 120 130 144 146 152 142 136 128 111 103 97 87 85 80 73 67 60 60 54
81 81 79 69 63 70 71 73 68 65 73 77 77 77 78 81 86 89 93 95 105 103 105 109 106 114 118 122 134 140 145 152 149 139 129 113 106 100 93 84 77 74 68 61 55 52 49
80 80 73 73 75 71 72 74 74 75 79 78 79 79 81 85 88 93 96 103 102 105 108 109 115 117 124 135 140 138 148 146 139 126 113 109 102 96 87 78 72 64 60 55 52 48 45
81 81 79 70 71 70 71 77 77 75 81 82 82 87 88 84 88 92 96 99 105 107 113 118 118 128 131 133 137 146 144 139 125 113 107 101 95 88 79 73 67 61 56 50 48 44 41
76 76 76 76 77 77 77 77 74 79 79 83 84 82 80 81 93 95 99 100 104 112 119 117 130 133 135 141 141 145 137 123 113 107 98 91 83 77 71 67 60 59 55 51 47 43 38
Wind_Direction
258 259 261 263 265 269 274 278 284 290 291 296 298 298 296 291 294 303 306 307 309 320 335 343 344 349 344 339 344 331 333 328 326 323 319 319 305 298 298 293 295 297 294 286 279 270 266
290 276 271 269 268 271 268 276 284 286 285 290 297 297 297 296 305 304 308 314 343 351 354 347 343 341 335 326 324 318 306 298 300 301 304 297 293 294 297 301 307 306 300 292 289 289 285
17 334 282 280 273 268 272 274 276 283 288 291 292 292 297 299 301 306 345 338 346 350 350 342 340 337 335 335 326 314 316 313 307 301 296 292 290 288 291 296 298 299 295 294 289 282 277
20 18 25 359 302 291 286 285 289 292 291 292 291 292 294 298 308 342 347 351 339 336 342 341 338 331 326 325 320 319 320 323 322 320 313 303 300 293 292 298 299 298 298 293 286 282 276
12 13 12 15 20 13 348 327 323 320 312 309 308 301 292 8 356 342 333 329 331 328 324 326 326 328 322 324 327 327 322 319 312 313 315 306 299 294 291 293 295 293 291 288 283 279 279
24 8 15 360 5 11 10 1 4 14 1 350 12 349 345 340 342 320 317 320 319 318 319 319 317 319 320 321 317 321 322 318 313 313 310 309 306 300 297 297 297 294 289 283 282 284 283
13 8 9 21 9 359 352 351 348 352 349 356 348 344 329 321 323 320 316 310 314 316 318 318 316 316 317 314 318 320 320 317 314 315 316 312 308 302 297 297 293 293 295 293 290 285 282
4 8 6 11 14 9 6 354 332 325 322 321 331 318 312 318 315 316 312 308 311 311 309 310 316 317 314 313 316 319 320 315 309 308 318 320 308 301 299 300 299 292 295 292 292 290 284
343 346 356 356 353 353 359 350 347 319 312 301 298 292 300 306 309 309 308 305 314 311 309 308 311 312 313 311 314 317 317 313 310 307 315 320 317 314 308 308 301 298 295 294 295 292 289
324 319 324 336 344 331 331 342 329 322 334 303 289 284 286 290 300 307 306 302 307 309 309 308 310 312 308 308 307 307 311 312 313 313 319 319 321 317 315 312 307 304 300 300 297 297 292
298 315 307 314 315 324 322 309 301 313 298 305 293 290 293 292 296 300 303 303 302 306 305 308 309 307 312 309 307 308 308 317 314 317 320 318 317 317 316 312 308 308 306 304 300 300 297
290 294 301 307 298 310 305 298 316 299 302 300 296 296 297 292 294 298 299 298 299 304 304 304 305 307 310 308 310 308 312 314 315 318 317 315 318 315 315 312 307 308 306 303 301 303 300
288 286 290 288 295 293 298 301 294 304 302 301 303 302 301 299 298 294 296 298 300 303 302 300 304 307 305 305 308 311 314 314 312 320 319 316 317 315 312 309 306 306 304 304 304 304 302
283 281 286 284 290 295 290 294 286 304 290 289 294 296 297 297 297 292 295 298 301 300 302 303 305 307 306 306 309 312 316 311 313 318 321 319 316 313 312 311 307 305 304 304 302 303 300
278 280 280 280 290 297 296 288 289 298 295 292 292 297 295 294 291 296 302 299 299 304 303 305 306 308 309 309 312 313 313 314 316 317 320 318 316 316 314 309 306 306 305 304 303 302 298
283 281 282 283 291 295 292 288 292 302 296 294 294 292 299 295 302 303 300 297 299 302 302 306 307 313 313 312 314 314 316 316 318 316 317 318 320 319 312 310 309 308 307 305 304 300 298
280 282 283 282 290 296 287 291 295 300 302 290 291 293 297 300 301 298 303 303 306 309 305 306 313 314 315 315 315 315 314 317 319 318 317 314 316 317 314 312 311 310 307 307 302 300 295
280 281 284 288 292 293 295 296 299 296 299 290 292 291 299 300 298 300 303 304 306 308 313 315 313 313 314 312 314 315 315 316 317 318 316 315 313 314 313 313 315 311 307 303 297 294 294
278 277 281 282 288 293 292 294 290 287 301 291 289 299 302 298 302 301 302 300 305 307 311 315 315 314 313 314 314 315 315 317 317 316 315 313 315 313 318 314 312 310 304 300 296 292 291
274 277 276 282 287 289 290 286 284 288 294 288 295 297 297 296 303 300 303 304 304 307 309 313 316 314 312 313 314 314 315 316 317 314 313 315 313 315 316 316 311 306 302 298 296 295 289
270 270 276 282 284 284 283 282 286 286 289 293 299 298 298 296 297 300 304 306 307 309 310 312 316 310 311 313 314 315 317 318 316 313 314 314 315 317 315 313 311 307 300 296 293 291 289
272 273 271 270 275 283 277 280 286 290 298 294 296 298 298 298 299 301 304 307 308 308 310 313 311 309 310 312 314 317 318 316 312 314 313 314 316 316 314 312 308 305 302 298 292 288 286
270 267 270 276 278 278 279 280 284 292 297 292 293 297 300 295 301 302 305 308 307 309 311 311 310 309 312 314 317 316 316 313 313 312 313 316 316 315 312 310 308 306 302 299 295 289 284
267 269 271 274 278 279 279 281 292 294 293 290 291 297 298 295 300 301 304 305 306 311 311 309 308 311 312 316 316 316 314 313 313 314 316 316 315 313 311 310 308 303 301 298 296 291 285
261 265 270 273 276 278 284 287 288 290 283 290 294 299 298 298 300 302 303 305 307 311 310 308 311 312 315 316 315 313 312 312 315 316 316 316 314 313 312 311 308 304 301 300 297 291 287
262 265 270 270 276 282 286 287 285 283 286 291 296 296 298 298 300 300 301 305 310 308 309 311 310 314 314 313 313 312 312 311 316 317 315 315 315 314 312 311 307 304 303 300 296 292 288
264 267 269 274 281 279 279 277 280 283 286 292 294 295 298 298 300 302 303 306 306 308 310 311 314 313 313 312 310 310 310 315 316 315 315 314 314 313 312 309 306 305 301 301 300 296 288
262 267 271 273 272 276 278 277 280 285 289 289 291 294 296 298 299 301 303 303 306 309 310 313 313 313 313 312 309 310 315 316 315 315 315 314 314 312 311 308 308 306 304 303 301 297 292
258 264 266 267 272 275 277 279 283 286 288 290 294 297 296 294 301 301 303 304 306 308 312 312 311 313 311 309 310 313 315 315 314 314 314 314 312 310 309 307 308 307 306 306 303 300 294
Height
10747 10746 10746 10746 10746 10747 10748 10748 10748 10748 10748 10748 10747 10746 10745 10743 10741 10739 10736 10733 10730 10727 10724 10721 10719 10716 10715 10714 10712 10710 10708 10705 10703 10701 10699 10697 10695 10693 10691 10689 10686 10683 10682 10681 10680 10678 10677
10743 10742 10742 10741 10740 10741 10741 10741 10741 10742 10742 10742 10741 10740 10738 10737 10735 10732 10730 10727 10725 10723 10721 10719 10717 10715 10713 10712 10709 10706 10705 10702 10699 10697 10695 10692 10689 10686 10683 10681 10678 10676 10673 10670 10669 10669 10666
10741 10739 10738 10737 10736 10736 10736 10736 10735 10736 10736 10735 10734 10733 10732 10731 10729 10727 10725 10724 10722 10720 10718 10717 10715 10713 10711 10709 10706 10703 10700 10697 10694 10691 10688 10684 10681 10678 10675 10672 10670 10666 10663 10661 10660 10659 10656
10741 10739 10736 10734 10733 10733 10732 10731 10730 10729 10729 10729 10728 10727 10726 10726 10725 10723 10722 10720 10719 10718 10716 10714 10712 10709 10707 10704 10701 10698 10694 10691 10688 10684 10680 10676 10672 10669 10667 10664 10661 10656 10654 10650 10646 10645 10645
10739 10739 10738 10735 10731 10729 10728 10728 10727 10725 10723 10722 10721 10721 10722 10722 10721 10719 10718 10717 10716 10714 10712 10710 10706 10704 10701 10698 10695 10692 10688 10684 10680 10676 10672 10668 10664 10660 10657 10654 10649 10644 10642 10637 10633 10631 10631
10738 10737 10738 10735 10732 10729 10727 10726 10725 10724 10722 10720 10718 10719 10719 10719 10718 10717 10716 10714 10712 10710 10707 10704 10700 10698 10694 10692 10688 10684 10679 10675 10671 10667 10662 10657 10653 10649 10645 10640 10637 10632 10628 10624 10617 10616 10615
10736 10735 10734 10732 10731 10729 10726 10724 10722 10721 10720 10719 10718 10717 10716 10716 10715 10713 10712 10710 10708 10704 10701 10697 10694 10691 10686 10683 10679 10674 10670 10666 10661 10656 10651 10646 10642 10636 10631 10627 10623 10618 10614 10610 10601 10598 10600
10732 10731 10730 10729 10726 10726 10724 10722 10720 10718 10717 10715 10714 10713 10712 10711 10710 10708 10706 10703 10700 10698 10694 10689 10685 10681 10677 10673 10668 10664 10660 10655 10651 10645 10640 10634 10628 10622 10617 10611 10605 10599 10596 10589 10586 10580 10578
10727 10725 10725 10724 10724 10722 10721 10719 10717 10715 10712 10711 10709 10708 10706 10704 10703 10701 10698 10696 10693 10689 10686 10680 10675 10671 10666 10662 10658 10654 10650 10645 10640 10634 10628 10620 10614 10607 10600 10593 10587 10583 10577 10571 10567 10561 10557
10722 10722 10720 10719 10718 10718 10717 10714 10713 10711 10708 10706 10703 10701 10699 10697 10695 10693 10690 10686 10684 10680 10676 10672 10666 10661 10657 10652 10648 10643 10638 10633 10628 10621 10613 10605 10598 10590 10583 10574 10567 10564 10556 10549 10544 10539 10537
10716 10717 10715 10714 10712 10712 10712 10710 10708 10706 10702 10700 10698 10696 10693 10690 10688 10685 10681 10677 10673 10670 10667 10662 10657 10651 10646 10641 10636 10631 10625 10618 10613 10607 10597 10590 10584 10575 10566 10555 10547 10541 10534 10527 10521 10514 10512
10710 10710 10709 10707 10705 10705 10705 10703 10702 10699 10696 10694 10690 10688 10685 10682 10679 10675 10672 10667 10663 10659 10655 10650 10645 10639 10633 10627 10622 10616 10611 10604 10598 10591 10583 10573 10566 10558 10548 10537 10526 10518 10509 10502 10496 10489 10488
10703 10703 10701 10701 10700 10699 10698 10697 10695 10692 10689 10686 10682 10680 10675 10672 10669 10665 10661 10657 10652 10647 10644 10638 10632 10626 10619 10613 10606 10599 10594 10588 10579 10573 10568 10559 10548 10536 10525 10515 10502 10491 10481 10468 10463 10461 10460
10695 10694 10694 10693 10692 10691 10690 10688 10687 10685 10681 10678 10674 10670 10666 10662 10658 10654 10649 10645 10640 10636 10630 10624 10618 10613 10604 10596 10589 10581 10576 10570 10560 10551 10542 10540 10535 10519 10508 10493 10481 10470 10458 10444 10422 10431 10424
10684 10684 10684 10684 10683 10682 10680 10679 10678 10675 10671 10668 10664 10660 10655 10650 10646 10641 10638 10633 10628 10623 10616 10610 10604 10598 10588 10578 10570 10563 10559 10550 10539 10528 10517 10511 10512 10496 10479 10465 10453 10444 10429 10416 10395 10395 10383
10673 10673 10673 10673 10672 10671 10671 10668 10666 10663 10660 10657 10652 10648 10643 10638 10634 10630 10625 10621 10616 10609 10603 10595 10588 10582 10571 10562 10553 10543 10538 10529 10518 10507 10498 10485 10482 10478 10460 10437 10425 10410 10396 10383 10372 10350 10349
10660 10661 10661 10660 10660 10659 10658 10656 10654 10652 10648 10644 10640 10636 10631 10626 10621 10616 10612 10607 10600 10594 10588 10580 10571 10562 10553 10544 10533 10523 10512 10502 10491 10480 10469 10454 10450 10456 10434 10409 10396 10386 10364 10348 10327 10329 10304
10647 10647 10648 10648 10647 10645 10645 10643 10640 10637 10635 10631 10628 10623 10618 10612 10608 10603 10598 10592 10586 10578 10571 10562 10554 10543 10534 10523 10514 10503 10490 10478 10469 10455 10441 10427 10409 10412 10415 10386 10365 10349 10328 10316 10300 10293 10284
10633 10634 10635 10635 10635 10635 10634 10632 10629 10626 10623 10618 10614 10610 10604 10599 10594 10588 10583 10576 10570 10561 10553 10545 10536 10524 10512 10502 10487 10480 10468 10456 10441 10427 10415 10401 10380 10364 10375 10360 10336 10322 10300 10281 10263 10257 10272
10619 10621 10620 10622 10623 10621 10620 10616 10615 10612 10609 10605 10602 10597 10591 10586 10579 10574 10568 10560 10552 10544 10535 10525 10515 10503 10492 10483 10469 10455 10443 10429 10412 10398 10383 10371 10351 10329 10317 10311 10301 10294 10272 10254 10235 10218 10221
10603 10604 10607 10607 10607 10606 10603 10602 10600 10596 10593 10591 10588 10583 10577 10572 10565 10559 10552 10544 10535 10526 10517 10505 10496 10484 10473 10460 10447 10432 10417 10398 10381 10365 10353 10336 10317 10300 10282 10265 10256 10248 10239 10229 10216 10196 10190
10586 10586 10589 10594 10594 10592 10590 10588 10586 10584 10580 10576 10572 10567 10562 10555 10549 10542 10533 10525 10515 10507 10498 10488 10476 10465 10453 10439 10423 10406 10392 10375 10358 10339 10320 10301 10286 10274 10252 10233 10217 10209 10197 10190 10189 10178 10157
10572 10573 10576 10579 10581 10581 10578 10576 10573 10570 10566 10562 10557 10552 10547 10539 10532 10525 10515 10506 10496 10488 10481 10468 10455 10442 10429 10415 10396 10378 10362 10346 10331 10311 10291 10275 10258 10240 10224 10207 10187 10173 10162 10155 10152 10146 10138
10559 10561 10563 10566 10567 10568 10566 10563 10559 10555 10550 10546 10541 10537 10531 10524 10515 10506 10498 10488 10479 10470 10460 10449 10435 10421 10405 10388 10371 10353 10336 10316 10297 10279 10263 10245 10227 10209 10194 10181 10164 10143 10136 10128 10122 10115 10114
10546 10549 10552 10553 10554 10553 10551 10549 10545 10541 10537 10532 10527 10521 10515 10507 10498 10489 10480 10471 10461 10450 10439 10425 10414 10399 10381 10366 10349 10328 10306 10285 10265 10246 10227 10211 10196 10181 10161 10152 10135 10117 10109 10103 10101 10091 10090
10533 10537 10537 10539 10540 10539 10537 10535 10531 10526 10523 10517 10511 10504 10497 10489 10480 10471 10462 10453 10441 10430 10418 10404 10389 10373 10358 10342 10321 10296 10275 10258 10234 10213 10197 10179 10164 10150 10135 10124 10112 10095 10086 10083 10079 10072 10068
10520 10521 10523 10525 10526 10524 10524 10521 10517 10513 10508 10502 10495 10488 10480 10471 10463 10453 10443 10432 10421 10409 10394 10380 10365 10349 10333 10315 10293 10271 10250 10231 10209 10192 10172 10153 10138 10123 10109 10097 10089 10080 10071 10064 10059 10055 10050
10507 10507 10508 10510 10510 10509 10508 10505 10501 10496 10492 10485 10477 10470 10462 10454 10445 10435 10424 10412 10400 10386 10372 10356 10340 10323 10303 10284 10261 10242 10222 10203 10183 10164 10150 10131 10117 10100 10089 10076 10067 10059 10053 10048 10042 10038 10034
10494 10492 10493 10494 10495 10494 10492 10489 10484 10480 10474 10467 10461 10453 10445 10435 10425 10417 10406 10392 10381 10364 10350 10333 10316 10295 10274 10251 10231 10214 10195 10178 10158 10142 10127 10114 10099 10085 10072 10060 10052 10042 10036 10031 10026 10022 10020